Ontario International Airport
KONT : now visible

Airfield :











YOU CAN JOIN US ON...

 
LOGIN :

Register | Disclaimer

   EN    FR    IT 

 









Legend :    VFR   Marginal VFR   IFR   Intensive IFR   Very Intensive IFR
Visi :
Ceiling :
>= 8 km
>= 3000ft
5 to 8 km
1000 to 3000 ft
1500m to 5 km
500 to 1000 ft
800 to 1500m
200 to 500 ft
< 800m
< 200 ft
Symbols :   Thunderstorms  Fog  Heavy snow  Heavy precipitations  Wind > 20 kt







- Airport Elevation : 944 ft
- IATA code : ONT


KONT - Ontario International

CURRENT METAR :
  • 160553Z VRB03KT 10SM BKN250 24/14 A2989 RMK AO2 SLP102 T02440139 10322 20239 51008

EXPIRED METARs :
  • 160453Z 27004KT 10SM BKN250 24/12 A2989 RMK AO2 SLP103 T02390122
  • 160353Z 23007KT 10SM FEW200 BKN250 26/07 A2988 RMK AO2 SLP100 T02610072

TAF KONT
Valid from the 16 at 06:00 until the 17 at 12:00 UTC


160520Z 1606/1712 VRB04KT P6SM BKN150
FM162100 26012KT P6SM BKN150
FM170400 VRB04KT P6SM SCT150
No reported NOTAMs for that airfield.



MET'MAP, your aeronautical weather chart ! - Copyright ORBIFLY December 2007 - Disclaimer

ORBIFLY MET'MAP TEAM :

Programming & Development : Alexandra Zaïnal
Concept & Development : Baudouin d'Aumeries
Co-Development & Prog : Marc-Olivier Méhu
Technical & hardware support : Manuel Goepfert

Contact : metmap@orbifly.com




SOURCES & CREDITS :

   NOAA       Earth
Advisory